Date String (YYYY-MM-DD hh:mm:ss) UTC,Instrument flags,absolute air pressure of the measurement (hPa),sample flow rate (lpm),inlet stack bypass flow (lpm),air temperature of the measurement (°C),ambient temperature measured by the external sensor (°C),aerosol sample conditioner tube jacket temperature (°C),OPC LED temperature (°C),internal box temperature (°C),relative humidity of the measurement (%),span deviation,mass concentration of particles derived from Lorenz-Mie calculation of OPC scattering (μg/m³),mass concentration of particles derived from Lorenz-Mie calculation of OPC scattering (μg/m³),mass concentration of particles derived from Lorenz-Mie calculation of OPC scattering (μg/m³)
DateTimeUTC,F1_M11,P_M11,Q1_M11,Q2_M11,T1_M11,T2_M11,T3_M11,T4_M11,T5_M11,U1_M11,ZSPAN_M11,X2_M11,X0_M11,X1_M11
2024-06-02 03:00:00,SystemResetWarning,0825.9,5.00,000.00,030.1,029.7,000.0,038.1,031.9,015.7,0000.0,0003.73,0013.95,0002.94
2024-06-02 03:01:00,SystemResetWarning,0826.0,5.00,000.00,030.2,029.7,000.0,038.2,032.0,015.6,0000.0,0003.72,0013.95,0002.94
2024-06-02 03:02:00,SystemResetWarning,0826.0,5.00,000.00,030.2,029.8,000.0,038.2,032.0,015.7,0000.0,0003.73,0013.54,0002.96
2024-06-02 03:03:00,SystemResetWarning,0826.0,5.00,000.00,030.3,029.7,000.0,038.3,032.0,015.7,0000.0,0003.75,0014.12,0002.95
2024-06-02 03:04:00,SystemResetWarning,0826.0,4.99,000.00,030.1,027.7,000.0,038.3,031.0,016.0,0000.0,0003.74,0014.27,0002.95
2024-06-02 03:05:00,SystemResetWarning,0825.9,5.02,000.00,029.6,026.3,000.0,038.4,030.2,016.4,0000.0,0003.75,0014.02,0002.97
2024-06-02 03:06:00,SystemResetWarning,0825.9,4.99,000.00,029.5,026.5,000.0,038.3,030.3,016.5,0000.0,0003.76,0013.94,0002.98
2024-06-02 03:07:00,SystemResetWarning,0825.9,4.99,000.00,029.4,026.9,000.0,038.2,030.6,016.5,0000.0,0003.74,0013.82,0002.98
2024-06-02 03:08:00,SystemResetWarning,0826.0,5.00,000.00,029.4,027.4,000.0,038.1,030.8,016.4,0000.0,0003.74,0012.99,0003.00
2024-06-02 03:09:00,SystemResetWarning,0825.9,5.01,000.00,029.5,027.8,000.0,038.0,031.0,016.4,0000.0,0003.75,0012.69,0003.02
2024-06-02 03:10:00,SystemResetWarning,0825.9,5.00,000.00,029.5,028.1,000.0,038.0,031.1,016.4,0000.0,0003.75,0012.08,0003.03
2024-06-02 03:11:00,SystemResetWarning,0825.9,5.00,000.00,029.6,028.4,000.0,038.0,031.2,016.3,0000.0,0003.73,0011.20,0003.03
2024-06-02 03:12:00,SystemResetWarning,0826.0,5.00,000.00,029.6,028.6,000.0,038.0,031.3,016.2,0000.0,0003.74,0010.98,0003.03
2024-06-02 03:13:00,SystemResetWarning,0826.1,5.01,000.00,029.7,028.8,000.0,038.0,031.4,016.2,0000.0,0003.74,0011.04,0003.02
2024-06-02 03:14:00,SystemResetWarning,0826.1,5.00,000.00,029.7,029.0,000.0,038.0,031.5,016.2,0000.0,0003.72,0010.39,0003.03
2024-06-02 03:15:00,SystemResetWarning,0826.2,5.00,000.00,029.8,029.1,000.0,038.0,031.6,016.1,0000.0,0003.76,0009.47,0003.04
2024-06-02 03:16:00,SystemResetWarning,0826.2,5.00,000.00,029.8,029.2,000.0,038.0,031.6,016.1,0000.0,0003.77,0009.32,0003.03
2024-06-02 03:17:00,SystemResetWarning,0826.3,5.00,000.00,029.9,029.3,000.0,038.0,031.7,016.0,0000.0,0003.82,0009.37,0003.06
2024-06-02 03:18:00,SystemResetWarning,0826.4,5.00,000.00,030.0,029.4,000.0,038.1,031.8,016.0,0000.0,0003.84,0009.43,0003.06
2024-06-02 03:19:00,SystemResetWarning,0826.4,5.00,000.00,030.0,029.5,000.0,038.1,031.8,016.0,0000.0,0003.83,0009.79,0003.04
2024-06-02 03:20:00,SystemResetWarning,0826.3,5.00,000.00,030.1,029.6,000.0,038.1,031.9,015.9,0000.0,0003.82,0009.67,0003.05
2024-06-02 03:21:00,SystemResetWarning,0826.3,5.00,000.00,030.1,029.6,000.0,038.2,031.9,015.9,0000.0,0003.83,0009.49,0003.07
2024-06-02 03:22:00,SystemResetWarning,0826.3,5.00,000.00,030.2,029.7,000.0,038.2,032.0,015.9,0000.0,0003.89,0010.40,0003.09
2024-06-02 03:23:00,SystemResetWarning,0826.2,4.99,000.00,030.2,029.7,000.0,038.2,032.0,015.9,0000.0,0003.92,0010.56,0003.11
2024-06-02 03:24:00,SystemResetWarning,0826.2,5.00,000.00,030.3,029.8,000.0,038.3,032.0,015.9,0000.0,0003.92,0011.98,0003.12
2024-06-02 03:25:00,SystemResetWarning,0826.1,5.02,000.00,030.3,029.8,000.0,038.3,032.1,015.8,0000.0,0003.91,0012.58,0003.13
2024-06-02 03:26:00,SystemResetWarning,0826.0,5.00,000.00,030.3,028.8,000.0,038.4,031.6,015.9,0000.0,0003.85,0012.29,0003.14
2024-06-02 03:27:00,SystemResetWarning,0826.0,4.99,000.00,029.8,026.5,000.0,038.4,030.5,016.3,0000.0,0003.84,0011.95,0003.15
2024-06-02 03:28:00,SystemResetWarning,0826.2,5.02,000.00,029.6,026.4,000.0,038.4,030.3,016.6,0000.0,0003.80,0011.90,0003.15
2024-06-02 03:29:00,SystemResetWarning,0826.3,4.99,000.00,029.5,026.8,000.0,038.3,030.5,016.7,0000.0,0003.83,0013.14,0003.16
2024-06-02 03:30:00,SystemResetWarning,0826.4,5.01,000.00,029.5,027.2,000.0,038.2,030.8,016.7,0000.0,0003.87,0013.05,0003.18
2024-06-02 03:31:00,SystemResetWarning,0826.6,5.00,000.00,029.5,027.6,000.0,038.1,030.9,016.7,0000.0,0003.88,0013.06,0003.19
2024-06-02 03:32:00,SystemResetWarning,0826.6,5.00,000.00,029.5,028.0,000.0,038.0,031.1,016.7,0000.0,0003.89,0013.29,0003.19
2024-06-02 03:33:00,SystemResetWarning,0826.6,4.99,000.00,029.6,028.2,000.0,038.0,031.2,016.7,0000.0,0003.88,0012.90,0003.20
2024-06-02 03:34:00,SystemResetWarning,0826.6,5.00,000.00,029.6,028.5,000.0,038.0,031.3,016.7,0000.0,0003.90,0012.78,0003.20
2024-06-02 03:35:00,SystemResetWarning,0826.6,5.00,000.00,029.7,028.7,000.0,038.0,031.4,016.8,0000.0,0003.96,0011.26,0003.20
2024-06-02 03:36:00,SystemResetWarning,0826.6,5.00,000.00,029.7,028.8,000.0,038.0,031.4,016.6,0000.0,0004.00,0011.13,0003.20
2024-06-02 03:37:00,SystemResetWarning,0826.6,4.99,000.00,029.8,029.0,000.0,038.0,031.5,016.3,0000.0,0004.03,0011.43,0003.21
2024-06-02 03:38:00,SystemResetWarning,0826.8,4.99,000.00,029.8,029.1,000.0,038.0,031.6,016.3,0000.0,0004.10,0011.96,0003.22
2024-06-02 03:39:00,SystemResetWarning,0826.8,5.00,000.00,029.9,029.2,000.0,038.0,031.7,016.3,0000.0,0004.17,0013.10,0003.23
2024-06-02 03:40:00,SystemResetWarning,0826.8,4.99,000.00,029.9,029.3,000.0,038.1,031.7,016.2,0000.0,0004.21,0012.25,0003.23
2024-06-02 03:41:00,SystemResetWarning,0826.8,5.00,000.00,030.0,029.4,000.0,038.1,031.8,016.2,0000.0,0004.26,0012.25,0003.25
2024-06-02 03:42:00,SystemResetWarning,0826.8,5.01,000.00,030.0,029.5,000.0,038.1,031.8,016.1,0000.0,0004.29,0013.21,0003.24
2024-06-02 03:43:00,SystemResetWarning,0826.8,5.00,000.00,030.1,029.6,000.0,038.2,031.9,016.1,0000.0,0004.30,0013.40,0003.24
2024-06-02 03:44:00,SystemResetWarning,0826.7,5.00,000.00,030.1,029.6,000.0,038.2,031.9,016.1,0000.0,0004.31,0013.60,0003.25
2024-06-02 03:45:00,SystemResetWarning,0826.6,5.00,000.00,030.2,029.7,000.0,038.2,032.0,016.1,0000.0,0004.28,0013.53,0003.26
2024-06-02 03:46:00,SystemResetWarning,0826.6,4.99,000.00,030.2,029.7,000.0,038.3,032.0,016.1,0000.0,0004.27,0013.59,0003.27
2024-06-02 03:47:00,SystemResetWarning,0826.6,5.00,000.00,030.3,029.8,000.0,038.3,032.0,015.6,0000.0,0004.33,0013.38,0003.27
2024-06-02 03:48:00,SystemResetWarning,0826.5,5.01,000.00,030.3,029.8,000.0,038.3,032.1,015.8,0000.0,0004.33,0012.79,0003.27
2024-06-02 03:49:00,SystemResetWarning,0826.4,5.01,000.00,030.4,029.9,000.0,038.4,032.1,015.4,0000.0,0004.34,0012.52,0003.26
2024-06-02 03:50:00,SystemResetWarning,0826.5,5.00,000.00,030.4,029.9,000.0,038.4,032.2,015.5,0000.0,0004.33,0011.90,0003.25
2024-06-02 03:51:00,SystemResetWarning,0826.5,4.99,000.00,030.5,029.9,000.0,038.5,032.1,015.2,0000.0,0004.29,0012.25,0003.26
2024-06-02 03:52:00,SystemResetWarning,0826.4,5.00,000.00,030.3,027.8,000.0,038.5,031.2,015.4,0000.0,0004.27,0014.62,0003.26
2024-06-02 03:53:00,SystemResetWarning,0826.3,5.01,000.00,029.8,026.5,000.0,038.6,030.5,015.7,0000.0,0004.25,0014.96,0003.25
2024-06-02 03:54:00,SystemResetWarning,0826.3,5.01,000.00,029.6,026.7,000.0,038.5,030.5,015.9,0000.0,0004.22,0014.48,0003.24
2024-06-02 03:55:00,SystemResetWarning,0826.4,4.99,000.00,029.6,027.1,000.0,038.3,030.7,015.8,0000.0,0004.21,0014.34,0003.23
2024-06-02 03:56:00,SystemResetWarning,0826.4,5.01,000.00,029.6,027.5,000.0,038.3,030.9,015.7,0000.0,0004.21,0014.54,0003.21
2024-06-02 03:57:00,SystemResetWarning,0826.4,5.00,000.00,029.6,027.9,000.0,038.2,031.1,015.9,0000.0,0004.23,0014.64,0003.20
2024-06-02 03:58:00,SystemResetWarning,0826.4,5.00,000.00,029.7,028.2,000.0,038.2,031.2,015.6,0000.0,0004.17,0015.05,0003.18
2024-06-02 03:59:00,SystemResetWarning,0826.4,5.00,000.00,029.7,028.5,000.0,038.1,031.3,015.4,0000.0,0004.10,0015.24,0003.15
